TimeEST,TemperatureF,Dew PointF,Humidity,Sea Level PressureIn,VisibilityMPH,Wind Direction,Wind SpeedMPH,Gust SpeedMPH,PrecipitationIn,Events,Conditions,WindDirDegrees,DateUTC
12:53 AM,28.0,27.0,96,30.30,10.0,Calm,Calm,-,N/A,,Clear,0,2004-01-01 05:53:00
1:53 AM,28.0,27.0,96,30.30,10.0,Calm,Calm,-,N/A,,Clear,0,2004-01-01 06:53:00
2:53 AM,26.1,26.1,100,30.31,10.0,Calm,Calm,-,N/A,,Clear,0,2004-01-01 07:53:00
3:53 AM,27.0,27.0,100,30.32,10.0,Calm,Calm,-,N/A,,Clear,0,2004-01-01 08:53:00
4:53 AM,27.0,27.0,100,30.32,10.0,Calm,Calm,-,N/A,,Clear,0,2004-01-01 09:53:00
5:53 AM,27.0,27.0,100,30.32,10.0,Calm,Calm,-,N/A,,Clear,0,2004-01-01 10:53:00
6:53 AM,28.0,28.0,100,30.32,10.0,Calm,Calm,-,N/A,,Clear,0,2004-01-01 11:53:00
7:53 AM,28.9,28.0,96,30.31,10.0,SE,4.6,-,N/A,,Clear,140,2004-01-01 12:53:00
8:53 AM,33.1,30.9,92,30.33,10.0,SSE,3.5,-,N/A,,Overcast,150,2004-01-01 13:53:00
9:53 AM,34.0,32.0,92,30.33,10.0,SE,6.9,-,N/A,,Mostly Cloudy,130,2004-01-01 14:53:00
10:53 AM,39.9,34.0,79,30.31,10.0,SE,9.2,-,N/A,,Partly Cloudy,140,2004-01-01 15:53:00
11:53 AM,41.0,35.1,79,30.27,10.0,SE,9.2,-,N/A,,Overcast,140,2004-01-01 16:53:00
12:53 PM,48.9,37.0,64,30.22,10.0,South,9.2,-,N/A,,Scattered Clouds,190,2004-01-01 17:53:00
1:53 PM,53.1,37.0,55,30.17,10.0,SSW,11.5,-,N/A,,Clear,200,2004-01-01 18:53:00
2:53 PM,55.0,39.9,57,30.12,10.0,South,13.8,-,N/A,,Clear,180,2004-01-01 19:53:00
3:53 PM,55.9,42.1,60,30.13,10.0,SSW,12.7,-,N/A,,Mostly Cloudy,200,2004-01-01 20:53:00
4:36 PM,55.4,42.8,63,30.12,10.0,SSW,11.5,-,N/A,,Overcast,200,2004-01-01 21:36:00
4:53 PM,54.0,42.1,64,30.12,10.0,SSW,11.5,19.6,N/A,,Overcast,200,2004-01-01 21:53:00
5:53 PM,53.1,43.0,69,30.10,10.0,South,10.4,-,N/A,,Overcast,170,2004-01-01 22:53:00
6:53 PM,54.0,45.0,72,30.09,10.0,South,13.8,-,N/A,,Overcast,180,2004-01-01 23:53:00
7:53 PM,53.1,48.0,83,30.06,10.0,South,11.5,18.4,0.00,Rain,Light Rain,190,2004-01-02 00:53:00
8:14 PM,51.8,48.2,88,30.05,7.0,South,12.7,-,0.03,Rain-Thunderstorm,Thunderstorms and Rain,190,2004-01-02 01:14:00
8:41 PM,51.8,51.8,100,30.03,10.0,South,15.0,20.7,0.09,Rain,Light Rain,180,2004-01-02 01:41:00
8:53 PM,51.1,51.1,100,30.05,10.0,South,12.7,-,0.09,,Overcast,190,2004-01-02 01:53:00
9:53 PM,52.0,52.0,100,30.05,7.0,South,13.8,-,0.02,Rain,Light Rain,190,2004-01-02 02:53:00
10:23 PM,51.8,51.8,100,30.05,6.0,SSW,13.8,-,0.02,Rain,Rain,200,2004-01-02 03:23:00
10:53 PM,51.1,51.1,100,30.04,7.0,SSW,18.4,25.3,0.06,Rain,Light Rain,200,2004-01-02 03:53:00
11:14 PM,50.0,50.0,100,30.04,8.0,SSW,15.0,19.6,0.04,Rain-Thunderstorm,Light Thunderstorms and Rain,210,2004-01-02 04:14:00
11:23 PM,50.0,50.0,100,30.05,2.5,SSW,11.5,-,0.12,Rain,Heavy Rain,210,2004-01-02 04:23:00
11:32 PM,50.0,50.0,100,30.04,1.8,SSW,13.8,-,0.24,Rain,Heavy Rain,210,2004-01-02 04:32:00
11:40 PM,50.0,50.0,100,30.04,2.0,South,13.8,-,0.32,Rain,Heavy Rain,190,2004-01-02 04:40:00
11:53 PM,50.0,50.0,100,30.04,4.0,SSW,16.1,-,0.38,Rain-Thunderstorm,Light Rain,210,2004-01-02 04:53:00
11:58 PM,50.0,50.0,100,30.03,9.0,SW,10.4,-,0.00,Rain-Thunderstorm,Light Rain,230,2004-01-02 04:58:00